Weather History for Winston-Salem, NC

Change the Weather History Date:

Monday, November 19, 2012

  Actual Average Record
Temperature  
Mean Temperature 51 °F -  
Max Temperature 57 °F 57 °F 75 °F (1975)
Min Temperature 44 °F 39 °F 17 °F (2014)
Degree Days  
Heating Degree Days 14    
Growing Degree Days 1 (Base 50)    
Moisture  
Dew Point 40 °F    
Average Humidity 70    
Maximum Humidity 82    
Minimum Humidity 57    
Precipitation  
Precipitation 0.00 in - - ()
Sea Level Pressure  
Sea Level Pressure 30.30 in    
Wind  
Wind Speed 9 mph (NNE)    
Max Wind Speed 13 mph    
Max Gust Speed 22 mph    
Visibility 10 miles    
Events      
Averages and records for this station are not official NWS values.
T = Trace of Precipitation, MM = Missing Value Source: NWS Daily Summary

Daily Weather History Graph

Daily Weather History Graph

Search for Another Location

Airport:

Trip Planner

Search our weather history database for the weather conditions in past years. The results will help you decide how hot, cold, wet, or windy it might be!

Date:

Astronomy

Nov. 19, 2012 Rise Set
Actual Time 7:02 AM EST 5:10 PM EST
Civil Twilight 6:34 AM EST 5:37 PM EST
Nautical Twilight 6:03 AM EST 6:09 PM EST
Astronomical Twilight 5:32 AM EST 6:39 PM EST
Moon 12:08 PM EST 11:30 PM EST
Length of Visible Light 11h 03m
Length of Day
10h 08m
Waxing Crescent, 40% of the Moon is Illuminated
Nov 19
Waxing Crescent
Nov 20
First Quarter
Nov 28
Full
Dec 6
Last Quarter
Dec 13
New

Hourly Weather History & Observations

Time (EST) Temp. Windchill Dew Point Humidity Pressure Visibility Wind Dir Wind Speed Gust Speed Precip Events Conditions
12:54 AM 48.0 °F - 37.9 °F 68% 30.38 in 10.0 mi NNE 9.2 mph 18.4 mph N/A   Overcast
1:13 AM 48.2 °F - 37.4 °F 66% 30.38 in 10.0 mi NNE 10.4 mph - N/A   Overcast
1:54 AM 48.0 °F - 37.9 °F 68% 30.37 in 10.0 mi NNE 10.4 mph - N/A   Overcast
2:54 AM 48.0 °F - 39.0 °F 71% 30.35 in 10.0 mi NE 10.4 mph 19.6 mph N/A   Overcast
3:54 AM 48.0 °F - 39.9 °F 74% 30.34 in 10.0 mi NNE 12.7 mph 19.6 mph N/A   Overcast
4:54 AM 48.0 °F - 41.0 °F 77% 30.34 in 10.0 mi NNE 12.7 mph - N/A   Overcast
5:54 AM 48.0 °F - 41.0 °F 77% 30.35 in 10.0 mi NNE 11.5 mph 20.7 mph N/A   Overcast
6:01 AM 48.2 °F - 41.0 °F 76% 30.35 in 10.0 mi NNE 11.5 mph 18.4 mph N/A   Overcast
6:54 AM 48.0 °F - 39.9 °F 74% 30.35 in 10.0 mi NNE 10.4 mph 19.6 mph N/A   Overcast
7:54 AM 48.0 °F - 39.9 °F 74% 30.35 in 10.0 mi NNE 11.5 mph 21.9 mph N/A   Overcast
8:54 AM 50.0 °F - 41.0 °F 71% 30.35 in 10.0 mi NNE 10.4 mph - N/A   Overcast
9:54 AM 51.1 °F - 41.0 °F 68% 30.35 in 10.0 mi NNE 12.7 mph 19.6 mph N/A   Overcast
10:54 AM 52.0 °F - 41.0 °F 66% 30.35 in 10.0 mi NNE 11.5 mph 18.4 mph N/A   Overcast
11:42 AM 53.6 °F - 41.0 °F 62% 30.33 in 10.0 mi NE 10.4 mph 18.4 mph N/A   Overcast
11:54 AM 53.1 °F - 41.0 °F 64% 30.32 in 10.0 mi NNE 8.1 mph - N/A   Overcast
12:54 PM 54.0 °F - 41.0 °F 62% 30.29 in 10.0 mi NE 6.9 mph - N/A   Overcast
1:54 PM 55.0 °F - 41.0 °F 59% 30.27 in 10.0 mi North 10.4 mph - N/A   Overcast
2:54 PM 57.0 °F - 42.1 °F 57% 30.26 in 10.0 mi NNE 10.4 mph - N/A   Overcast
3:39 PM 57.2 °F - 42.8 °F 59% 30.25 in 10.0 mi NE 5.8 mph - N/A   Scattered Clouds
3:54 PM 55.9 °F - 42.1 °F 60% 30.25 in 10.0 mi ENE 8.1 mph - N/A   Clear
4:54 PM 54.0 °F - 42.1 °F 64% 30.25 in 10.0 mi NNE 5.8 mph - N/A   Clear
5:54 PM 50.0 °F - 41.0 °F 71% 30.25 in 10.0 mi NNE 4.6 mph - N/A   Clear
6:54 PM 48.9 °F - 39.9 °F 71% 30.25 in 10.0 mi North 4.6 mph - N/A   Clear
7:54 PM 48.0 °F - 39.9 °F 74% 30.24 in 10.0 mi NE 5.8 mph - N/A   Clear
8:54 PM 46.9 °F - 39.9 °F 77% 30.24 in 10.0 mi NNE 5.8 mph - N/A   Clear
9:54 PM 45.0 °F 42.6 °F 39.0 °F 80% 30.23 in 10.0 mi NNE 4.6 mph - N/A   Clear
10:54 PM 45.0 °F 42.6 °F 39.0 °F 80% 30.21 in 10.0 mi NNE 4.6 mph - N/A   Clear
11:54 PM 44.1 °F 41.5 °F 39.0 °F 82% 30.21 in 10.0 mi North 4.6 mph - N/A   Clear